sat.trackr.live / text

‹ back to catalog

QPS-SAR-10 (WADATSUMI-I)

NORAD 64055 · 2025-104A

PAYLOAD ACTIVE UNKNOWN

§ Identity

Operator
Country
JPN
Launch date
2025-05-17
Launch site
RLLB
Launch vehicle
Mass (kg)
RCS (m²)

External: N2YO · Heavens-Above · Gunter

§ Orbital elements

Epoch: 2026-09-21T22:25:31.614816Z

Period
95.84 min
Inclination
42.0032°
Eccentricity
0.0014783
Mean motion
15.02452724 rev/d
Perigee alt
549.1 km
Apogee alt
569.6 km
Semi-major
6,937.5 km
B*
2.0897e-4
RAAN
105.0771°
Arg perigee
252.1005°
Mean anomaly
107.8210°
Rev number
7,398

§ Raw data

QPS-SAR-10 (WADATSUMI-I)1 64055U 25104A   26264.93439369  .00002635  00000+0  20897-3 0  99922 64055  42.0032 105.0771 0014783 252.1005 107.8210 15.02452724 73980

JSON: /api/v1/satellites/64055 · /tle

For live sub-satellite position, see the globe view (requires WebGL).

§ Visibility from observer

Set your observer location to see the next 7 days of passes ≥ 10°. The values pass through the URL so the page stays shareable.

No JS? Fill the form by hand. The geolocation button needs JavaScript.